Voltar ao catálogo

BREEZE-KM R/B

AtivoPO
NORAD 41580·ROCKET BODY·🇷🇺 Russia

Lançado Jun 4, 2016 de Plesetsk Cosmodrome

Loading…

Próximas Passagens (próximas 24 horas)

TLE

AtualizadoSource: Space-Track

Época: Sep 14, 2026, 08:48 UTC

1 41580U 16034B   26257.36711762  .00000022  00000-0  26116-4 0  9991
2 41580  99.1660 127.7795 0209099 292.5474  65.3696 14.25931444534690

Acompanhe BREEZE-KM R/B em tempo real com AllMySat

Download on the App Store